Location: ??????
(56.0120°N, 39.1740°E)
Time: 10:52:37
(UTC+00:00)

Lacrosse 5 rocket - Pass Details

Date: 14 April 2026
Orbit: 390 x 473 km, 57.0° (Epoch: 10 May)

Event Time Altitude Azimuth Distance (km) Brightness Sun altitude
Rises 19:32:08 0° 268° (W) 2,289 4.9 -20.4°
Reaches altitude 10° 19:34:11 10° 270° (W) 1,430 3.8 -20.5°
Enters shadow 19:37:00 63° 304° (NW) 443 1.0 -20.7°
